• în România
  • Lista ţărilor
  • Pe 7 zile
  • Temperatura apei
  • Hartă satelitară
  • Meteo pe hartă
  • Widget-uri
  • user-avatar
    Intrare

    Meteo pe oră la Schegolevo

    Astăzi, 23 Iulie, Luni

    Timp Temperatura Precipitaţii Vânt Presiune Umiditate
    00:00 +17°C° 0 mm 2 m/s 740 mmHg 98%
    01:00 +17°C° 0 mm 2 m/s 740 mmHg 98%
    02:00 +17°C° 0 mm 2 m/s 740 mmHg 98%
    03:00 +17°C° 0 mm 2 m/s 740 mmHg 98%
    04:00 +17°C° 0 mm 2 m/s 740 mmHg 98%
    05:00 +17°C° 0 mm 2 m/s 740 mmHg 97%
    06:00 +18°C° 0 mm 2 m/s 741 mmHg 92%
    07:00 +19°C° 0 mm 3 m/s 741 mmHg 87%
    08:00 +21°C° 0 mm 3 m/s 741 mmHg 83%
    09:00 +21°C° 0,2 mm 3 m/s 741 mmHg 80%
    10:00 +22°C° 0,2 mm 3 m/s 741 mmHg 78%
    11:00 +22°C° 0,2 mm 4 m/s 741 mmHg 76%
    12:00 +22°C° 0,2 mm 3 m/s 741 mmHg 75%
    13:00 +24°C° 0,2 mm 3 m/s 741 mmHg 74%
    14:00 +24°C° 0,2 mm 3 m/s 741 mmHg 73%
    15:00 +24°C° 0,4 mm 3 m/s 741 mmHg 77%
    16:00 +22°C° 0,4 mm 3 m/s 741 mmHg 80%
    17:00 +22°C° 0,4 mm 3 m/s 741 mmHg 84%
    18:00 +21°C° 0,1 mm 2 m/s 741 mmHg 87%
    19:00 +20°C° 0,1 mm 2 m/s 741 mmHg 91%
    20:00 +18°C° 0,1 mm 2 m/s 741 mmHg 94%
    21:00 +18°C° 0 mm 2 m/s 741 mmHg 95%
    22:00 +17°C° 0 mm 2 m/s 741 mmHg 96%
    23:00 +17°C° 0 mm 2 m/s 741 mmHg 97%

    Mâine, 24 Iulie, Marţi

    Timp Temperatura Precipitaţii Vânt Presiune Umiditate
    00:00 +17°C° 0 mm 2 m/s 741 mmHg 97%
    01:00 +16°C° 0 mm 2 m/s 741 mmHg 97%
    02:00 +16°C° 0 mm 2 m/s 741 mmHg 98%
    03:00 +16°C° 0 mm 2 m/s 741 mmHg 98%
    04:00 +16°C° 0 mm 2 m/s 742 mmHg 98%
    05:00 +16°C° 0 mm 2 m/s 742 mmHg 97%
    06:00 +16°C° 0 mm 2 m/s 742 mmHg 96%
    07:00 +17°C° 0 mm 2 m/s 742 mmHg 94%
    08:00 +17°C° 0 mm 2 m/s 742 mmHg 93%
    09:00 +18°C° 0 mm 2 m/s 742 mmHg 90%
    10:00 +19°C° 0 mm 3 m/s 742 mmHg 88%
    11:00 +20°C° 0 mm 3 m/s 742 mmHg 86%
    12:00 +21°C° 0 mm 3 m/s 742 mmHg 82%
    13:00 +22°C° 0 mm 3 m/s 742 mmHg 79%
    14:00 +24°C° 0 mm 3 m/s 742 mmHg 75%
    15:00 +24°C° 0,3 mm 3 m/s 742 mmHg 78%
    16:00 +24°C° 0,3 mm 3 m/s 742 mmHg 80%
    17:00 +24°C° 0,3 mm 3 m/s 742 mmHg 82%
    18:00 +22°C° 0,3 mm 3 m/s 742 mmHg 87%
    19:00 +21°C° 0,3 mm 2 m/s 742 mmHg 91%
    20:00 +19°C° 0,3 mm 2 m/s 742 mmHg 95%
    21:00 +19°C° 0 mm 2 m/s 743 mmHg 96%
    22:00 +18°C° 0 mm 2 m/s 743 mmHg 97%
    23:00 +18°C° 0 mm 2 m/s 743 mmHg 98%

    Poimâine, 25 Iulie, Miercuri

    Timp Temperatura Precipitaţii Vânt Presiune Umiditate
    00:00 +18°C° 0 mm 2 m/s 743 mmHg 98%
    01:00 +18°C° 0 mm 2 m/s 743 mmHg 99%
    02:00 +18°C° 0 mm 1 m/s 743 mmHg 99%
    03:00 +18°C° 0 mm 2 m/s 743 mmHg 99%
    04:00 +18°C° 0 mm 2 m/s 743 mmHg 99%
    05:00 +18°C° 0 mm 2 m/s 743 mmHg 99%
    06:00 +19°C° 0 mm 2 m/s 743 mmHg 96%
    07:00 +20°C° 0 mm 2 m/s 744 mmHg 94%
    08:00 +21°C° 0 mm 2 m/s 744 mmHg 92%
    09:00 +23°C° 0,2 mm 2 m/s 744 mmHg 88%
    10:00 +25°C° 0,2 mm 2 m/s 744 mmHg 83%
    11:00 +26°C° 0,2 mm 2 m/s 744 mmHg 79%
    12:00 +26°C° 0,6 mm 3 m/s 744 mmHg 79%
    13:00 +26°C° 0,6 mm 3 m/s 744 mmHg 79%
    14:00 +26°C° 0,6 mm 3 m/s 744 mmHg 80%
    15:00 +26°C° 0,7 mm 2 m/s 744 mmHg 82%
    16:00 +26°C° 0,7 mm 2 m/s 744 mmHg 85%
    17:00 +25°C° 0,7 mm 2 m/s 744 mmHg 87%
    18:00 +24°C° 0,1 mm 2 m/s 744 mmHg 89%
    19:00 +23°C° 0,1 mm 2 m/s 745 mmHg 90%
    20:00 +20°C° 0,1 mm 2 m/s 745 mmHg 92%
    21:00 +20°C° 0 mm 2 m/s 745 mmHg 92%
    22:00 +19°C° 0 mm 2 m/s 745 mmHg 92%
    23:00 +18°C° 0 mm 2 m/s 745 mmHg 92%

    26 Iulie, Joi

    Timp Temperatura Precipitaţii Vânt Presiune Umiditate
    00:00 +18°C° 0 mm 2 m/s 745 mmHg 90%
    01:00 +17°C° 0 mm 2 m/s 745 mmHg 88%
    02:00 +17°C° 0 mm 2 m/s 745 mmHg 86%
    03:00 +18°C° 0 mm 2 m/s 745 mmHg 86%
    04:00 +18°C° 0 mm 3 m/s 746 mmHg 85%
    05:00 +18°C° 0 mm 3 m/s 746 mmHg 85%
    06:00 +19°C° 0 mm 3 m/s 746 mmHg 81%
    07:00 +21°C° 0 mm 3 m/s 746 mmHg 76%
    08:00 +22°C° 0 mm 4 m/s 746 mmHg 72%
    09:00 +25°C° 0 mm 4 m/s 746 mmHg 67%
    10:00 +27°C° 0 mm 4 m/s 746 mmHg 61%
    11:00 +28°C° 0 mm 4 m/s 746 mmHg 56%
    12:00 +29°C° 0 mm 4 m/s 746 mmHg 55%
    13:00 +30°C° 0 mm 4 m/s 746 mmHg 53%
    14:00 +30°C° 0 mm 4 m/s 746 mmHg 52%
    15:00 +30°C° 0 mm 3 m/s 746 mmHg 57%
    16:00 +29°C° 0 mm 3 m/s 746 mmHg 62%
    17:00 +28°C° 0 mm 2 m/s 746 mmHg 66%
    18:00 +27°C° 0 mm 2 m/s 746 mmHg 73%
    19:00 +25°C° 0 mm 2 m/s 746 mmHg 79%
    20:00 +24°C° 0 mm 2 m/s 746 mmHg 85%
    21:00 +23°C° 0 mm 2 m/s 746 mmHg 86%
    22:00 +21°C° 0 mm 2 m/s 746 mmHg 88%
    23:00 +20°C° 0 mm 2 m/s 746 mmHg 90%

    27 Iulie, Vineri

    Timp Temperatura Precipitaţii Vânt Presiune Umiditate
    00:00 +20°C° 0 mm 2 m/s 746 mmHg 91%
    01:00 +19°C° 0 mm 2 m/s 746 mmHg 92%
    02:00 +19°C° 0 mm 2 m/s 746 mmHg 93%
    03:00 +19°C° 0 mm 2 m/s 746 mmHg 92%
    04:00 +19°C° 0 mm 2 m/s 747 mmHg 92%
    05:00 +19°C° 0 mm 2 m/s 747 mmHg 91%
    06:00 +21°C° 0 mm 2 m/s 747 mmHg 86%
    07:00 +23°C° 0 mm 2 m/s 747 mmHg 81%
    08:00 +25°C° 0 mm 2 m/s 747 mmHg 76%
    09:00 +26°C° 0 mm 3 m/s 748 mmHg 72%
    10:00 +28°C° 0 mm 3 m/s 748 mmHg 67%
    11:00 +29°C° 0 mm 3 m/s 748 mmHg 63%
    12:00 +29°C° 0,9 mm 3 m/s 748 mmHg 64%
    13:00 +29°C° 0,9 mm 3 m/s 748 mmHg 65%
    14:00 +30°C° 0,9 mm 3 m/s 748 mmHg 66%
    15:00 +29°C° 0,4 mm 2 m/s 748 mmHg 69%
    16:00 +29°C° 0,4 mm 2 m/s 748 mmHg 72%
    17:00 +28°C° 0,4 mm 2 m/s 748 mmHg 75%
    18:00 +27°C° 0,3 mm 1 m/s 748 mmHg 79%
    19:00 +25°C° 0,3 mm 1 m/s 748 mmHg 83%
    20:00 +24°C° 0,3 mm 1 m/s 748 mmHg 87%
    21:00 +23°C° 0 mm 1 m/s 748 mmHg 87%
    22:00 +22°C° 0 mm 1 m/s 748 mmHg 88%
    23:00 +22°C° 0 mm 1 m/s 748 mmHg 89%

    28 Iulie, Sâmbătă

    Timp Temperatura Precipitaţii Vânt Presiune Umiditate
    00:00 +21°C° 0,3 mm 1 m/s 748 mmHg 90%
    01:00 +21°C° 0,3 mm 1 m/s 749 mmHg 91%
    02:00 +20°C° 0,3 mm 1 m/s 749 mmHg 93%
    03:00 +20°C° 0,1 mm 1 m/s 749 mmHg 92%
    04:00 +21°C° 0,1 mm 1 m/s 749 mmHg 92%
    05:00 +21°C° 0,1 mm 1 m/s 749 mmHg 92%
    06:00 +22°C° 0 mm 1 m/s 749 mmHg 87%
    07:00 +24°C° 0 mm 1 m/s 749 mmHg 83%
    08:00 +25°C° 0 mm 2 m/s 749 mmHg 78%
    09:00 +27°C° 0,1 mm 2 m/s 749 mmHg 69%
    10:00 +28°C° 0,1 mm 2 m/s 749 mmHg 60%
    11:00 +30°C° 0,1 mm 3 m/s 749 mmHg 52%
    12:00 +30°C° 0 mm 3 m/s 749 mmHg 50%
    13:00 +30°C° 0 mm 3 m/s 749 mmHg 48%
    14:00 +31°C° 0 mm 2 m/s 748 mmHg 47%
    15:00 +30°C° 0 mm 2 m/s 748 mmHg 51%
    16:00 +30°C° 0 mm 2 m/s 748 mmHg 56%
    17:00 +29°C° 0 mm 1 m/s 748 mmHg 60%
    18:00 +27°C° 0 mm 1 m/s 748 mmHg 66%
    19:00 +25°C° 0 mm 1 m/s 748 mmHg 72%
    20:00 +23°C° 0 mm 1 m/s 748 mmHg 78%
    21:00 +23°C° 0 mm 1 m/s 749 mmHg 80%
    22:00 +22°C° 0 mm 1 m/s 749 mmHg 81%
    23:00 +21°C° 0 mm 1 m/s 749 mmHg 83%
    Arată mai mult